Lancaster, SC

3:35 AM EST on December 11, 2017 (GMT -0500)
Lancaster County-McWhirter

Weather History for KLKR - January, 2014

Change the Weather History Date:

Thursday, January 2, 2014

  Actual Average (KUZA) Record (KUZA)
Temperature  
Mean Temperature 44 °F -  
Max Temperature 48 °F 52 °F 78 °F (1952)
Min Temperature 39 °F 34 °F 17 °F (1977)
Degree Days  
Heating Degree Days 22    
Moisture  
Dew Point 44 °F    
Average Humidity 97    
Maximum Humidity 100    
Minimum Humidity 65    
Precipitation  
Precipitation 0.15 in - - ()
Sea Level Pressure  
Sea Level Pressure 29.87 in    
Wind  
Wind Speed 2 mph (WSW)    
Max Wind Speed 20 mph    
Max Gust Speed 29 mph    
Visibility 7 miles    
Events Rain    
Averages and records for this station are not official NWS values.
T = Trace of Precipitation, MM = Missing Value Source: NWS Daily Summary

Daily Weather History Graph

Daily Weather History Graph

Search for Another Location

Airport or City:

Trip Planner

Search our weather history database for the weather conditions in past years. The results will help you decide how hot, cold, wet, or windy it might be!

Date:

Astronomy

Jan. 02, 2014 Rise Set
Actual Time 7:30 AM EST 5:24 PM EST
Civil Twilight 7:02 AM EST 5:52 PM EST
Nautical Twilight 6:31 AM EST 6:23 PM EST
Astronomical Twilight 6:00 AM EST 6:54 PM EST
Moon 8:15 AM EST (1/2) 7:14 PM EST (1/2)
Length of Visible Light 10h 49m
Length of Day
9h 53m
New Moon, 2% of the Moon is Illuminated
Jan 2
New Moon
Jan 7
First Quarter
Jan 15
Full
Jan 24
Last Quarter
Jan 30
New

Hourly Weather History & Observations

Time (EST) Temp. Windchill Dew Point Humidity Pressure Visibility Wind Dir Wind Speed Gust Speed Precip Events Conditions
12:15 AM 39.2 °F - 39.2 °F 100% 30.14 in 10.0 mi Calm Calm - N/A   Overcast
12:35 AM 41.0 °F - 41.0 °F 100% 30.14 in 10.0 mi Calm Calm - N/A   Overcast
12:55 AM 41.0 °F - 41.0 °F 100% 30.14 in 10.0 mi Calm Calm - N/A   Overcast
1:15 AM 41.0 °F - 41.0 °F 100% 30.14 in 10.0 mi Calm Calm - N/A   Scattered Clouds
1:35 AM 41.0 °F - 41.0 °F 100% 30.13 in 10.0 mi Calm Calm - N/A   Scattered Clouds
1:55 AM 41.0 °F - 41.0 °F 100% 30.12 in 10.0 mi Calm Calm - N/A Rain Light Rain
2:15 AM 41.0 °F - 41.0 °F 100% 30.13 in 7.0 mi Calm Calm - N/A   Partly Cloudy
2:35 AM 41.0 °F - 41.0 °F 100% 30.11 in 6.0 mi Calm Calm - N/A Rain Light Rain
2:55 AM 41.0 °F - 41.0 °F 100% 30.12 in 10.0 mi Calm Calm - N/A Rain Light Rain
3:15 AM 41.0 °F - 41.0 °F 100% 30.10 in 9.0 mi Calm Calm - N/A   Partly Cloudy
3:35 AM 41.0 °F - 41.0 °F 100% 30.09 in 9.0 mi Calm Calm - N/A   Clear
3:55 AM 41.0 °F - 41.0 °F 100% 30.06 in 9.0 mi Calm Calm - N/A   Clear
4:15 AM 41.0 °F - 41.0 °F 100% 30.05 in 5.0 mi Calm Calm - N/A   Mostly Cloudy
4:35 AM 41.0 °F - 41.0 °F 100% 30.04 in 6.0 mi Calm Calm - N/A   Scattered Clouds
4:55 AM 41.0 °F - 41.0 °F 100% 30.04 in 7.0 mi Calm Calm - N/A   Clear
5:15 AM 41.0 °F 39.0 °F 41.0 °F 100% 30.04 in 4.0 mi West 3.5 mph - N/A Rain Light Rain
5:35 AM 41.0 °F - 41.0 °F 100% 30.04 in 5.0 mi Calm Calm - N/A   Partly Cloudy
5:55 AM 41.0 °F - 41.0 °F 100% 30.02 in 5.0 mi Calm Calm - 0.01 in Rain Light Rain
6:15 AM 41.0 °F - 41.0 °F 100% 30.01 in 7.0 mi Calm Calm - N/A   Partly Cloudy
6:35 AM 41.0 °F - 41.0 °F 100% 30.01 in 5.0 mi Calm Calm - N/A   Clear
6:55 AM 41.0 °F - 41.0 °F 100% 30.00 in 3.0 mi Calm Calm - N/A   Clear
7:15 AM 41.0 °F - 41.0 °F 100% 29.99 in 5.0 mi Calm Calm - N/A   Clear
7:35 AM 41.0 °F - 41.0 °F 100% 29.98 in 3.0 mi Calm Calm - N/A   Clear
7:55 AM 41.0 °F - 41.0 °F 100% 29.98 in 2.0 mi Calm Calm - N/A   Scattered Clouds
8:15 AM 41.0 °F - 41.0 °F 100% 29.97 in 3.0 mi Calm Calm - N/A   Overcast
8:35 AM 41.0 °F - 41.0 °F 100% 29.97 in 4.0 mi Calm Calm - N/A   Overcast
8:55 AM 41.0 °F - 41.0 °F 100% 29.97 in 5.0 mi Calm Calm - N/A   Overcast
9:15 AM 42.8 °F - 42.8 °F 100% 29.95 in 6.0 mi Calm Calm - N/A   Overcast
9:35 AM 44.6 °F - 44.6 °F 100% 29.95 in 5.0 mi Calm Calm - N/A   Overcast
9:55 AM 44.6 °F - 44.6 °F 100% 29.94 in 5.0 mi Calm Calm - N/A   Overcast
10:15 AM 44.6 °F - 44.6 °F 100% 29.92 in 5.0 mi Calm Calm - N/A   Mostly Cloudy
10:35 AM 44.6 °F - 44.6 °F 100% 29.91 in 5.0 mi Calm Calm - N/A   Partly Cloudy
10:55 AM 44.6 °F 43.1 °F 44.6 °F 100% 29.90 in 5.0 mi WSW 3.5 mph - N/A   Mostly Cloudy
11:15 AM 46.4 °F - 46.4 °F 100% 29.88 in 6.0 mi Calm Calm - N/A   Overcast
11:35 AM 46.4 °F - 46.4 °F 100% 29.86 in 8.0 mi Calm Calm - N/A   Overcast
11:55 AM 48.2 °F - 48.2 °F 100% 29.84 in 10.0 mi South 3.5 mph - N/A   Overcast
12:15 PM 48.2 °F - 48.2 °F 100% 29.82 in 10.0 mi Calm Calm - N/A   Overcast
12:35 PM 48.2 °F - 48.2 °F 100% 29.81 in 10.0 mi SW 4.6 mph - N/A   Overcast
12:55 PM 48.2 °F - 48.2 °F 100% 29.80 in 10.0 mi South 3.5 mph - N/A   Overcast
1:15 PM 48.2 °F - 48.2 °F 100% 29.78 in 8.0 mi SSW 3.5 mph - N/A Rain Light Rain
1:35 PM 48.2 °F - 48.2 °F 100% 29.76 in 2.0 mi Calm Calm - N/A   Overcast
1:55 PM 48.2 °F - 48.2 °F 100% 29.76 in 1.8 mi Calm Calm - N/A Rain Light Rain
2:15 PM 48.2 °F - 48.2 °F 100% 29.75 in 1.0 mi Calm Calm - 0.01 in Rain Light Rain
2:35 PM 48.2 °F - 48.2 °F 100% 29.73 in 1.0 mi WSW 3.5 mph - 0.02 in Rain Light Rain
2:55 PM 48.2 °F - 48.2 °F 100% 29.72 in 0.8 mi SW 3.5 mph - 0.03 in Rain Light Rain
3:15 PM 48.2 °F - 48.2 °F 100% 29.71 in 1.2 mi Calm Calm - 0.01 in Rain Light Rain
3:35 PM 48.2 °F - 48.2 °F 100% 29.70 in 1.5 mi Calm Calm - 0.02 in   Overcast
3:55 PM 48.2 °F - 48.2 °F 100% 29.70 in 0.8 mi Calm Calm - 0.03 in Rain Light Rain
4:15 PM 48.2 °F - 48.2 °F 100% 29.71 in 1.0 mi Calm Calm - 0.03 in Rain Light Rain
4:35 PM 48.2 °F - 48.2 °F 100% 29.69 in 2.5 mi Calm Calm - 0.04 in Rain Light Rain
4:55 PM 48.2 °F - 48.2 °F 100% 29.68 in 3.0 mi SW 3.5 mph - 0.04 in   Overcast
5:15 PM 48.2 °F - 48.2 °F 100% 29.68 in 3.0 mi Calm Calm - N/A Rain Light Rain
5:35 PM 48.2 °F - 48.2 °F 100% 29.67 in 3.0 mi Calm Calm - 0.01 in Rain Light Rain
5:55 PM 48.2 °F - 48.2 °F 100% 29.67 in 7.0 mi SW 3.5 mph - 0.02 in Rain Light Rain
6:15 PM 48.2 °F - 48.2 °F 100% 29.66 in 9.0 mi SW 4.6 mph - N/A Rain Light Rain
6:35 PM 48.2 °F - 48.2 °F 100% 29.66 in 5.0 mi SW 3.5 mph - 0.01 in Rain Light Rain
6:55 PM 48.2 °F - 48.2 °F 100% 29.67 in 10.0 mi WSW 6.9 mph - 0.02 in   Overcast
7:15 PM 48.2 °F - 48.2 °F 100% 29.67 in 10.0 mi West 10.4 mph - N/A   Overcast
7:35 PM 48.2 °F - 48.2 °F 100% 29.67 in 10.0 mi West 13.8 mph 19.6 mph N/A   Overcast
7:55 PM 48.2 °F - 48.2 °F 100% 29.68 in 10.0 mi West 9.2 mph - N/A   Overcast
8:15 PM 48.2 °F - 48.2 °F 100% 29.68 in 10.0 mi West 8.1 mph - N/A   Overcast
8:35 PM 48.2 °F - 48.2 °F 100% 29.70 in 10.0 mi West 9.2 mph - N/A   Overcast
8:55 PM 48.2 °F - 48.2 °F 100% 29.70 in 10.0 mi West 12.7 mph 16.1 mph N/A   Overcast
9:15 PM 46.4 °F 40.4 °F 46.4 °F 100% 29.70 in 10.0 mi West 13.8 mph - N/A   Overcast
9:35 PM 46.4 °F 41.9 °F 42.8 °F 87% 29.72 in 10.0 mi West 9.2 mph 18.4 mph N/A   Overcast
9:55 PM 44.6 °F 39.2 °F 39.2 °F 81% 29.72 in 10.0 mi WNW 10.4 mph 18.4 mph N/A   Mostly Cloudy
10:15 PM 42.8 °F 38.6 °F 37.4 °F 81% 29.72 in 10.0 mi West 6.9 mph - N/A   Scattered Clouds
10:35 PM 42.8 °F 38.0 °F 37.4 °F 81% 29.73 in 10.0 mi WNW 8.1 mph - N/A   Mostly Cloudy
10:55 PM 41.0 °F 34.7 °F 35.6 °F 81% 29.75 in 10.0 mi WNW 10.4 mph 19.6 mph N/A   Mostly Cloudy
11:15 PM 41.0 °F 34.3 °F 32.0 °F 70% 29.76 in 10.0 mi WNW 11.5 mph 21.9 mph N/A   Mostly Cloudy
11:35 PM 41.0 °F 33.9 °F 32.0 °F 70% 29.78 in 10.0 mi WNW 12.7 mph 18.4 mph N/A   Mostly Cloudy
11:55 PM 39.2 °F 29.6 °F 28.4 °F 65% 29.79 in 10.0 mi WNW 19.6 mph 28.8 mph N/A   Mostly Cloudy